Regional Weather Roundup
Issued by NWS Charleston, SC

Current Version | Previous Version | Text Only | Print | Product List | Glossary Off
Versions: 1 2 3 4 5 6 7 8 9 10 11 12 13 14 15 16 17 18 19 20 21 22 23 24 25 26 27 28 29 30 31 32 33 34 35 36 37 38 39 40 41 42 43 44 45 46 47 48 49 50

000
ASUS42 KCHS 201012
RWRCHS

REGIONAL WEATHER ROUNDUP
NATIONAL WEATHER SERVICE CHARLESTON SC
600 AM EDT SUN AUG 20 2017

NOTE: "FAIR" INDICATES FEW OR NO CLOUDS BELOW 12,000 FEET WITH NO
SIGNIFICANT WEATHER AND/OR OBSTRUCTIONS TO VISIBILITY.

NOT ALL STATIONS ARE QUALITY CONTROLLED. USE DATA WITH CAUTION...
ESPECIALLY DEWPOINT OBSERVATIONS.

SCZ027-030-031-034>040-042>050-201100-
...SOUTHEAST SOUTH CAROLINA...

CITY           SKY/WX    TMP DP  RH WIND       PRES   REMARKS
N CHARLESTON   PTCLDY    79  79 100 CALM      30.01R
WATERFRONT PRK   N/A     82  80  94 CALM      29.84R HX  94
JOHNS ISLAND   PTSUNNY   81  79  94 CALM      30.01R
PINOPOLIS        N/A     81  81 100 SW5       29.93S HX  91
MONCKS CORNER  FOG       75  75 100 CALM      30.01R VSB 1/2
SUMMERVILLE    CLOUDY    75  75 100 CALM      30.02R FOG
BEAUFORT MCAS  CLEAR     81  80  97 CALM      30.00R HX  91
BEAUFORT ARPT  FAIR      81  77  89 CALM      30.00R
HILTON HEAD IS NOT AVBL
WALTERBORO     SUNNY     73  73 100 CALM      30.02R
ALLENDALE      NOT AVBL

...SOUTHERN MIDLANDS AND PEE DEE...

CITY           SKY/WX    TMP DP  RH WIND       PRES   REMARKS
GEORGETOWN     FAIR      77  75  94 CALM      30.02R FOG
KINGSTREE      FOG       72  72 100 CALM      30.01R VSB 3/4
ORANGEBURG     CLEAR     73  70  90 CALM      30.02R
BARNWELL       FAIR      72  72 100 CALM      30.02R
AIKEN          FAIR      70  68  94 CALM      30.05S
MANNING        FAIR      73  73 100 MISG      30.01R
COLUMBIA       PTCLDY    74  70  87 CALM      30.01R
SUMTER         CLEAR     73  68  84 CALM      29.99R
FLORENCE       CLEAR     75  75 100 CALM      30.01R FOG
MYRTLE BEACH   PTCLDY    81  79  94 SW6       30.02
N MYRTLE BEACH MOCLDY    80  79  96 W3        30.01R

$$

GAZ063-065-086>088-099>101-113>116-118-119-134>141-150-201100-
...SOUTHEAST GEORGIA...

CITY           SKY/WX    TMP DP  RH WIND       PRES   REMARKS
SAVANNAH ARPT  PTCLDY    79  76  90 S5        30.01R
HUNTER AAF     CLEAR     77  75  92 CALM      29.98R
FORT STEWART   CLEAR     76  73  91 CALM      29.98R
STATESBORO     CLEAR     74  73  99 CALM      30.00S
SYLVANIA       MOSUNNY   73  73 100 CALM      30.02R
CLAXTON        FAIR      73  73  98 CALM      30.00R FOG

...CSRA...CENTRAL AND FAR SOUTHEAST GEORGIA...

CITY           SKY/WX    TMP DP  RH WIND       PRES   REMARKS
THOMSON        CLEAR     69  68  96 CALM      30.09R
AUGUSTA-BUSH   CLEAR     72  70  93 CALM      30.01R
AUGUSTA-DANIEL CLEAR     77  67  71 CALM      30.03R
SWAINSBORO     FAIR      70  70 100 CALM      30.03R
VIDALIA        CLEAR     73  70  88 CALM      30.01R
EASTMAN        FAIR      70  70 100 CALM      30.05R FOG
HAZLEHURST     FAIR      74  70  86 CALM      30.00R
ALMA           FOG       73  72  96 CALM      30.00R VSB 1
WAYCROSS       CLEAR     76  73  90 CALM      30.00S
JESUP          NOT AVBL
BAXLEY         NOT AVBL
BRUNSWICK      CLEAR     75  72  88 CALM      30.01S
SAINT SIMONS   CLEAR     80  75  84 CALM      30.00R

$$

SCZ027-028-034-036>038-045-046-048>050-GAZ119-141-201100-
...LAKE AND SUPPLEMENTAL COASTAL OBSERVATIONS...

STATION/POSITION TIME  TEMP    WIND        PRES    WAVE   SWELL
                       AIR SEA DIR/SP/G            HT/PER HT/PER/DIR
                 (UTC) (F)     (DEG/KT/KT) (MB)    (FT/S) (FT/S/D)
WINYAH BAY       0845   80     270/  4     1016.0
LAKE MURRAY      0920   76      CALM  /  2 1015.6
ACE BASIN NERRS  0845   79        CALM     1016.0
FORT PULASKI     0942   82 87  220/  3/  4 1016.1S
SAPELO ISLAND    0900   81        CALM     1016.0

$$

ANZ835-935-AMZ111-154-330-350-352-354-370-450-454-472-201100-
...C-MAN AND BUOY OBSERVATIONS...

STATION/POSITION TIME  TEMP    WIND        PRES    WAVE   SWELL
                       AIR SEA DIR/SP/G            HT/PER HT/PER/DIR
                 (UTC) (F)     (DEG/KT/KT) (MB)    (FT/S) (FT/S/D)
BUOY 41004       0950   84 84  220/ 10/ 12 1015.7R   3/ 8   2/140/ 8
BUOY 41008       0950   84 85  190/ 14/ 16 1015.3R   3/ 9   2/ 80/ 9
FOLLY BEACH CMAN 0900   84     220/  9/ 12 1016.3R
CAPERS NEARSHORE 0908   82 86  220/ 10/ 16 1015.4S
FRIPP NEARSHORE  0908   82     150/ 10/ 14 1015.5R


STATION/POSITION TIME  TEMP    WIND        PRES    WAVE   SWELL
                       AIR SEA DIR/SP/G            HT/PER HT/PER/DIR
                 (UTC) (F)     (DEG/KT/KT) (MB)    (FT/S) (FT/S/D)
5E ST. MARYS GA  0930      84                N/A     3/ 8
FRYING PAN BUOY  0950   84 84  230/ 12/ 14 1016.0R   4/ 8   2/130/ 8
BUOY 41025       0950   81 83  270/  8/ 10 1016.0R   3/ 9   3/130/ 9
CAPE LOOKOUT NC  0900   77     250/ 12/ 17 1015.7R
BUOY 41002       0950   78 84  110/ 10/ 12 1017.9R   3/ 5   3/200/ 5
BUOY 41010       0950   84 85  140/ 10/ 12 1015.7R   3/ 8   2/120/ 8
ST AUGUSTINE FL  1000   80 81  200/  5/  6 1016.2R


$$




USA.gov is the U.S. government's official web portal to all federal, state and local government web resources and services.